Location: D�pe
(52.6057°N, 8.1808°E)
Time: 01:10:50
(UTC+00:00)

CSL-04 Debris - Pass Details

Date: 29 October 2020
Orbit: 827 x 848 km, 98.9° (Epoch: 23 November)

Event Time Altitude Azimuth Distance (km) Brightness Sun altitude
Rises 17:37:41 0° 147° (SSE) 3,380 7.0 -14.9°
Reaches altitude 10° 17:40:04 10° 143° (SE) 2,452 6.3 -15.3°
Maximum altitude 17:45:21 56° 67° (ENE) 1,004 4.3 -16.1°
Drops below altitude 10° 17:50:43 10° 351° (N) 2,480 6.7 -16.9°
Sets 17:53:08 0° 347° (NNW) 3,422 7.5 -17.3°
